weather.gov     
National Weather Service

Regional Weather Roundup
NWS Homepage
This page is being discontinued on March 12, 2014.
The same data is available at this site. Please update your bookmarks.
Thank you, and we apologize for the inconvenience.
Please send an email to SR-SRH.Webmaster@noaa.gov with any concerns.


Current Version
Previous Version:    01  02  03  04  05  06  07  08  09  10  11  12  13  14  15  16  17  18  19  20  21  22  23  24  25  26  27  28  29  30  
   31  32  33  34  35  36  37  38  39  40  41  42  43  44  45  46  47  48  49  50  51  52  53  54  
[Printable]
921
ASUS43 KLMK 220410
RWRKY
KENTUCKY REGIONAL WEATHER ROUNDUP
NATIONAL WEATHER SERVICE LOUISVILLE KY
1100 PM EST SUN DEC 21 2014

NOTE "FAIR" INDICATES FEW OR NO CLOUDS BELOW 12,000 FEET
WITH NO SIGNIFICANT WEATHER AND/OR OBSTRUCTIONS TO VISIBILITY.

KYZ001>023-026-027-061>063-070>075-220500-
WESTERN AND SOUTH CENTRAL KENTUCKY

CITY           SKY/WX    TMP DP  RH WIND       PRES   REMARKS
PADUCAH        CLOUDY    38  30  73 E5        29.99F WCI  34
HENDERSON      CLEAR     34  27  75 E6        30.04F WCI  29
OWENSBORO      CLEAR     35  28  76 E7        30.05S WCI  29
HOPKINSVILLE   PTCLDY    40  31  70 E6        30.01F
BOWLING GREEN  PTCLDY    38  28  67 E5        30.05F WCI  34
GLASGOW        MOCLDY    36  29  75 E3        30.05F
$$

KYZ024-025-028>034-038-045-046-053-220500-
NORTH CENTRAL KENTUCKY

CITY           SKY/WX    TMP DP  RH WIND       PRES   REMARKS
LOUISVILLE/SDF MOCLDY    33  27  78 CALM      30.10F
LOUISVILLE/LOU MOCLDY    34  27  75 CALM      30.10F
FORT KNOX      PTCLDY    32  27  83 NE6       30.06S WCI  26
$$

KYZ035>037-039>044-047>052-055>060-089>105-220500-
NORTHEAST KENTUCKY

CITY           SKY/WX    TMP DP  RH WIND       PRES   REMARKS
LEXINGTON      CLEAR     33  27  78 E9        30.09F WCI  25
COVINGTON      PTCLDY    29  22  75 E6        30.11F WCI  23
FRANKFORT      CLEAR     30  25  81 NE5       30.09F WCI  25
$$

KYZ054-064>069-076>088-106>120-220500-
SOUTHEAST KENTUCKY

CITY           SKY/WX    TMP DP  RH WIND       PRES   REMARKS
JACKSON        CLOUDY    37  26  64 VRB3      30.11R
LONDON         CLOUDY    42  28  57 E5        30.09S
SOMERSET       CLOUDY    39  28  65 CALM      30.11R
MIDDLESBORO    CLOUDY    39  35  85 CALM      30.12S
MONTICELLO     CLOUDY    39  32  76 CALM      30.11S
$$





U.S. Dept. of Commerce
NOAA National Weather Service
1325 East West Highway
Silver Spring, MD 20910
E-mail: w-nws.webmaster@noaa.gov
Page last modified: May 16, 2007
NATIONAL WEATHER SERVICE: for Safety, for Work, for Fun - FOR LIFE